Tracking 30995 objects as of 7-Jul-2025
HD Live streaming from Space Station
objects crossing your sky now

STARLINK-5758

Track STARLINK-5758 now!
10-day predictions
STARLINK-5758 is classified as:


NORAD ID: 56037
Int'l Code: 2023-042BD
Perigee: 565.0 km
Apogee: 567.5 km
Inclination: 43.0 °
Period: 95.8 minutes
Semi major axis: 6937 km
RCS: Unknown
Launch date: March 24, 2022
Source: United States (US)
Launch site: AIR FORCE EASTERN TEST RANGE (AFETR)
Your satellite tracking list
Your tracking list is empty




NASA's NSSDC Master Catalog

Two Line Element Set (TLE):
1 56037U 23042BD  25187.74476663 -.00000027  00000-0  13088-4 0  9992
2 56037  43.0051 286.4544 0001829 259.7542 100.3094 15.02535102126553
Source of the keplerian elements: AFSPC